This is the latest recevied weather packets stored in our database for station/object N4QD-13. If no packets are shown the sender has not sent any weather packets the latest 10 day(s).
| Time | Temp. | Humidity | Pressure | Rain* | Wind** | Luminosity | Snow |
|---|---|---|---|---|---|---|---|
| 1778093115 | 20.56° C | 82% | 1010 hPa | 0 mm | - | 166 W/m² | - |
| 1778092813 | 20.56° C | 82% | 1009.8 hPa | 0 mm | - | 102 W/m² | - |
| 1778092508 | 20.56° C | 82% | 1010 hPa | 0 mm | - | 74 W/m² | - |
| 1778092205 | 20.56° C | 82% | 1009.9 hPa | 0 mm | - | 57 W/m² | - |
| 1778091902 | 20.56° C | 82% | 1009.9 hPa | 0 mm | - | 36 W/m² | - |
| 1778091599 | 20.56° C | 82% | 1010 hPa | 0 mm | - | 37 W/m² | - |
| 1778091297 | 20.56° C | 82% | 1010 hPa | 0 mm | - | 30 W/m² | - |
| 1778090994 | 20.56° C | 82% | 1010 hPa | 0 mm | - | 33 W/m² | - |
| 1778090690 | 20.56° C | 81% | 1009.9 hPa | 0 mm | - | 36 W/m² | - |
| 1778090387 | 21.11° C | 80% | 1009.8 hPa | 0 mm | - | 53 W/m² | - |
| 1778090084 | 21.11° C | 80% | 1009.9 hPa | 0 mm | - | 82 W/m² | - |
| 1778089780 | 21.67° C | 80% | 1009.9 hPa | 0 mm | - | 124 W/m² | - |
| 1778089478 | 21.67° C | 79% | 1009.9 hPa | 0 mm | - | 200 W/m² | - |
| 1778089175 | 21.67° C | 79% | 1010 hPa | 0 mm | - | 289 W/m² | - |
| 1778088872 | 21.67° C | 79% | 1010.2 hPa | 0 mm | - | 340 W/m² | - |
| 1778088569 | 21.67° C | 79% | 1010.1 hPa | 0 mm | - | 336 W/m² | - |
| 1778088266 | 21.11° C | 79% | 1010.1 hPa | 0 mm | - | 285 W/m² | - |
| 1778087963 | 21.11° C | 79% | 1009.9 hPa | 0 mm | - | 285 W/m² | - |
| 1778087660 | 21.11° C | 79% | 1010.1 hPa | 0 mm | - | 341 W/m² | - |
| 1778087358 | 21.11° C | 80% | 1009.9 hPa | 0 mm | - | 308 W/m² | - |
| 1778087054 | 20.56° C | 80% | 1010.3 hPa | 0 mm | - | 301 W/m² | - |
| 1778086753 | 20.56° C | 80% | 1010.1 hPa | 0 mm | - | 311 W/m² | - |
| 1778086451 | 21.11° C | 80% | 1010.4 hPa | 0 mm | - | 306 W/m² | - |
| 1778086147 | 20.56° C | 81% | 1010.4 hPa | 0 mm | - | 298 W/m² | - |
| 1778085844 | 20.56° C | 80% | 1010.6 hPa | 0 mm | - | 355 W/m² | - |
* Rain latest hour (hover to see other rain measurements)
** Current wind speed in m/s (hover to see current wind gust speed)